This is the latest recevied weather packets stored in our database for station/object KC4JIR. If no packets are shown the sender has not sent any weather packets the latest 10 day(s).
| Time | Temp. | Humidity | Pressure | Rain* | Wind** | Luminosity | Snow |
|---|---|---|---|---|---|---|---|
| 1778086188 | 28.33° C | 52% | 1013.9 hPa | 0 mm | - | 689 W/m² | - |
| 1778085885 | 27.78° C | 52% | 1013.8 hPa | 0 mm | - | 882 W/m² | - |
| 1778085583 | 27.78° C | 55% | 1013.9 hPa | 0 mm | - | 447 W/m² | - |
| 1778085278 | 28.89° C | 53% | 1014.2 hPa | 0 mm | - | 676 W/m² | - |
| 1778084973 | 28.89° C | 56% | 1014.1 hPa | 0 mm | - | 873 W/m² | - |
| 1778084670 | 28.89° C | 53% | 1014.1 hPa | 0 mm | - | 752 W/m² | - |
| 1778084362 | 28.33° C | 51% | 1014.2 hPa | 0 mm | - | 818 W/m² | - |
| 1778084060 | 28.33° C | 52% | 1014.3 hPa | 0 mm | - | 779 W/m² | - |
| 1778083757 | 27.22° C | 54% | 1014.1 hPa | 0 mm | - | 697 W/m² | - |
| 1778083455 | 26.67° C | 57% | 1014.3 hPa | 0 mm | - | 582 W/m² | - |
| 1778083152 | 26.67° C | 58% | 1014.5 hPa | 0 mm | - | 513 W/m² | - |
| 1778082849 | 26.11° C | 60% | 1014.2 hPa | 0 mm | - | 498 W/m² | - |
| 1778081731 | 26.11° C | 64% | 1014.5 hPa | 0 mm | - | 764 W/m² | - |
| 1778081429 | 26.11° C | 64% | 1014.6 hPa | 0 mm | - | 928 W/m² | - |
| 1778081125 | 25.56° C | 70% | 1014.5 hPa | 0 mm | - | 1036 W/m² | - |
| 1778080824 | 24.44° C | 74% | 1014.4 hPa | 0 mm | - | 908 W/m² | - |
| 1778080521 | 23.89° C | 76% | 1014.5 hPa | 0 mm | - | 443 W/m² | - |
| 1778080218 | 23.89° C | 77% | 1014.7 hPa | 0 mm | - | 322 W/m² | - |
| 1778079914 | 23.33° C | 78% | 1014.4 hPa | 0 mm | - | 373 W/m² | - |
| 1778079612 | 23.33° C | 78% | 1014.6 hPa | 0 mm | - | 312 W/m² | - |
| 1778079308 | 22.78° C | 79% | 1014.5 hPa | 0 mm | - | 347 W/m² | - |
| 1778079006 | 22.78° C | 80% | 1014.3 hPa | 0 mm | - | 328 W/m² | - |
| 1778078702 | 22.22° C | 82% | 1014.6 hPa | 0 mm | - | 260 W/m² | - |
| 1778078400 | 22.22° C | 83% | 1014.3 hPa | 0 mm | - | 237 W/m² | - |
| 1778078097 | 21.67° C | 83% | 1014.2 hPa | 0 mm | - | 394 W/m² | - |
* Rain latest hour (hover to see other rain measurements)
** Current wind speed in m/s (hover to see current wind gust speed)